When you browse on this site, cookies collect data to enhance your experience and personalize the content and advertising you see.
Visit our Privacy Policy to learn more. By continuing to use the site, you agree to this use of cookies and data.
  • In Belgien
  • Länderverzeichnis
  • Für 7 Tage
  • Wassertemperatur
  • Wetterkarte
  • Widgets
  • user-avatar
    Anmelden

    Stündliche Wetter Lezhe

    Heute, 18 September, Mittwoch

    Zeit Temperatur Niederschläge Wind Luftdruck Luftfeuchtigkeit
    00:00 +20°C° 0 mm 1 m/S 737 mmHg 75%
    01:00 +19°C° 0 mm 1 m/S 737 mmHg 78%
    02:00 +19°C° 0 mm 1 m/S 737 mmHg 78%
    03:00 +19°C° 0 mm 1 m/S 736 mmHg 78%
    04:00 +19°C° 0 mm 1 m/S 736 mmHg 78%
    05:00 +20°C° 0 mm 1 m/S 737 mmHg 72%
    06:00 +21°C° 0 mm 1 m/S 737 mmHg 67%
    07:00 +23°C° 0 mm 1 m/S 737 mmHg 60%
    08:00 +25°C° 0 mm 1 m/S 737 mmHg 54%
    09:00 +27°C° 0 mm 1 m/S 738 mmHg 48%
    10:00 +29°C° 0 mm 1 m/S 738 mmHg 42%
    11:00 +29°C° 0 mm 2 m/S 738 mmHg 40%
    12:00 +30°C° 0 mm 2 m/S 738 mmHg 39%
    13:00 +30°C° 0 mm 3 m/S 738 mmHg 37%
    14:00 +29°C° 0 mm 3 m/S 738 mmHg 41%
    15:00 +29°C° 0 mm 2 m/S 737 mmHg 44%
    16:00 +28°C° 0 mm 2 m/S 737 mmHg 47%
    17:00 +26°C° 0 mm 2 m/S 738 mmHg 51%
    18:00 +24°C° 0 mm 2 m/S 738 mmHg 55%
    19:00 +21°C° 0 mm 2 m/S 738 mmHg 59%
    20:00 +20°C° 0 mm 2 m/S 738 mmHg 57%
    21:00 +19°C° 0 mm 3 m/S 739 mmHg 55%
    22:00 +19°C° 0 mm 3 m/S 739 mmHg 54%
    23:00 +18°C° 0 mm 3 m/S 739 mmHg 54%

    Morgen, 19 September, Donnerstag

    Zeit Temperatur Niederschläge Wind Luftdruck Luftfeuchtigkeit
    00:00 +18°C° 0 mm 3 m/S 739 mmHg 54%
    01:00 +17°C° 0 mm 3 m/S 739 mmHg 54%
    02:00 +17°C° 0 mm 3 m/S 738 mmHg 56%
    03:00 +17°C° 0 mm 3 m/S 738 mmHg 58%
    04:00 +16°C° 0 mm 3 m/S 738 mmHg 60%
    05:00 +17°C° 0 mm 3 m/S 738 mmHg 59%
    06:00 +18°C° 0 mm 3 m/S 738 mmHg 58%
    07:00 +19°C° 0 mm 3 m/S 738 mmHg 57%
    08:00 +20°C° 0.2 mm 3 m/S 738 mmHg 54%
    09:00 +22°C° 0.2 mm 3 m/S 738 mmHg 51%
    10:00 +24°C° 0.2 mm 3 m/S 739 mmHg 48%
    11:00 +22°C° 0.4 mm 3 m/S 738 mmHg 53%
    12:00 +21°C° 0.4 mm 3 m/S 738 mmHg 58%
    13:00 +20°C° 0.4 mm 4 m/S 738 mmHg 63%
    14:00 +21°C° 0.2 mm 4 m/S 738 mmHg 63%
    15:00 +21°C° 0.2 mm 4 m/S 738 mmHg 62%
    16:00 +21°C° 0.2 mm 3 m/S 738 mmHg 61%
    17:00 +19°C° 0.1 mm 4 m/S 738 mmHg 65%
    18:00 +17°C° 0.1 mm 4 m/S 739 mmHg 69%
    19:00 +15°C° 0.1 mm 4 m/S 739 mmHg 73%
    20:00 +14°C° 0 mm 4 m/S 739 mmHg 72%
    21:00 +14°C° 0 mm 4 m/S 740 mmHg 70%
    22:00 +13°C° 0 mm 5 m/S 740 mmHg 69%
    23:00 +13°C° 0 mm 5 m/S 740 mmHg 69%

    übermorgen, 20 September, Freitag

    Zeit Temperatur Niederschläge Wind Luftdruck Luftfeuchtigkeit
    00:00 +13°C° 0 mm 5 m/S 740 mmHg 70%
    01:00 +13°C° 0 mm 5 m/S 740 mmHg 70%
    02:00 +12°C° 0 mm 5 m/S 740 mmHg 68%
    03:00 +12°C° 0 mm 5 m/S 740 mmHg 66%
    04:00 +12°C° 0 mm 5 m/S 740 mmHg 65%
    05:00 +13°C° 0 mm 5 m/S 740 mmHg 61%
    06:00 +13°C° 0 mm 5 m/S 740 mmHg 56%
    07:00 +14°C° 0 mm 5 m/S 740 mmHg 52%
    08:00 +16°C° 0 mm 5 m/S 740 mmHg 47%
    09:00 +19°C° 0 mm 5 m/S 741 mmHg 41%
    10:00 +21°C° 0 mm 5 m/S 741 mmHg 36%
    11:00 +22°C° 0 mm 5 m/S 741 mmHg 33%
    12:00 +23°C° 0 mm 5 m/S 740 mmHg 30%
    13:00 +25°C° 0 mm 5 m/S 740 mmHg 28%
    14:00 +25°C° 0 mm 4 m/S 740 mmHg 26%
    15:00 +25°C° 0 mm 4 m/S 740 mmHg 25%
    16:00 +25°C° 0 mm 4 m/S 740 mmHg 24%
    17:00 +21°C° 0 mm 4 m/S 740 mmHg 27%
    18:00 +19°C° 0 mm 4 m/S 741 mmHg 30%
    19:00 +17°C° 0 mm 4 m/S 741 mmHg 33%
    20:00 +15°C° 0 mm 4 m/S 742 mmHg 34%
    21:00 +14°C° 0 mm 4 m/S 742 mmHg 36%
    22:00 +14°C° 0 mm 4 m/S 742 mmHg 38%
    23:00 +13°C° 0 mm 4 m/S 742 mmHg 39%

    21 September, Samstag

    Zeit Temperatur Niederschläge Wind Luftdruck Luftfeuchtigkeit
    00:00 +13°C° 0 mm 4 m/S 742 mmHg 40%
    01:00 +12°C° 0 mm 4 m/S 743 mmHg 41%
    02:00 +12°C° 0 mm 4 m/S 743 mmHg 41%
    03:00 +12°C° 0 mm 4 m/S 742 mmHg 42%
    04:00 +11°C° 0 mm 4 m/S 742 mmHg 43%
    05:00 +12°C° 0 mm 4 m/S 742 mmHg 41%
    06:00 +13°C° 0 mm 4 m/S 742 mmHg 40%
    07:00 +14°C° 0 mm 4 m/S 742 mmHg 38%
    08:00 +18°C° 0 mm 3 m/S 743 mmHg 34%
    09:00 +20°C° 0 mm 3 m/S 743 mmHg 30%
    10:00 +24°C° 0 mm 2 m/S 743 mmHg 25%
    11:00 +25°C° 0 mm 2 m/S 743 mmHg 25%
    12:00 +27°C° 0 mm 2 m/S 743 mmHg 25%
    13:00 +28°C° 0 mm 2 m/S 742 mmHg 25%
    14:00 +28°C° 0 mm 2 m/S 742 mmHg 27%
    15:00 +27°C° 0 mm 2 m/S 742 mmHg 29%
    16:00 +26°C° 0 mm 3 m/S 741 mmHg 31%
    17:00 +24°C° 0 mm 2 m/S 742 mmHg 37%
    18:00 +20°C° 0 mm 2 m/S 742 mmHg 44%
    19:00 +19°C° 0 mm 1 m/S 742 mmHg 50%
    20:00 +19°C° 0 mm 1 m/S 742 mmHg 51%
    21:00 +18°C° 0 mm 1 m/S 742 mmHg 52%
    22:00 +18°C° 0 mm 1 m/S 742 mmHg 53%
    23:00 +18°C° 0 mm 1 m/S 742 mmHg 56%

    22 September, Sonntag

    Zeit Temperatur Niederschläge Wind Luftdruck Luftfeuchtigkeit
    00:00 +18°C° 0 mm 1 m/S 742 mmHg 59%
    01:00 +16°C° 0 mm 1 m/S 742 mmHg 61%
    02:00 +16°C° 0 mm 1 m/S 741 mmHg 63%
    03:00 +16°C° 0 mm 1 m/S 741 mmHg 64%
    04:00 +16°C° 0 mm 1 m/S 741 mmHg 65%
    05:00 +18°C° 0 mm 1 m/S 741 mmHg 62%
    06:00 +19°C° 0 mm 1 m/S 741 mmHg 58%
    07:00 +20°C° 0 mm 1 m/S 741 mmHg 55%
    08:00 +22°C° 0 mm 1 m/S 741 mmHg 49%
    09:00 +24°C° 0 mm 1 m/S 741 mmHg 43%
    10:00 +26°C° 0 mm 1 m/S 742 mmHg 38%
    11:00 +27°C° 0 mm 2 m/S 741 mmHg 35%
    12:00 +28°C° 0 mm 2 m/S 740 mmHg 32%
    13:00 +28°C° 0 mm 3 m/S 740 mmHg 29%
    14:00 +28°C° 0 mm 2 m/S 740 mmHg 31%
    15:00 +27°C° 0 mm 2 m/S 739 mmHg 33%
    16:00 +26°C° 0 mm 1 m/S 739 mmHg 35%
    17:00 +24°C° 0 mm 1 m/S 739 mmHg 40%
    18:00 +22°C° 0 mm 1 m/S 739 mmHg 45%
    19:00 +18°C° 0 mm 0 m/S 739 mmHg 50%
    20:00 +18°C° 0 mm 0 m/S 739 mmHg 51%
    21:00 +20°C° 0 mm 1 m/S 739 mmHg 52%
    22:00 +19°C° 0 mm 1 m/S 739 mmHg 53%
    23:00 +19°C° 0 mm 1 m/S 739 mmHg 52%

    23 September, Montag

    Zeit Temperatur Niederschläge Wind Luftdruck Luftfeuchtigkeit
    00:00 +19°C° 0 mm 1 m/S 739 mmHg 52%
    01:00 +19°C° 0 mm 1 m/S 739 mmHg 52%
    02:00 +19°C° 0 mm 1 m/S 739 mmHg 50%
    03:00 +19°C° 0 mm 1 m/S 739 mmHg 49%
    04:00 +20°C° 0 mm 1 m/S 738 mmHg 47%
    05:00 +20°C° 0 mm 1 m/S 738 mmHg 47%
    06:00 +21°C° 0 mm 1 m/S 738 mmHg 47%
    07:00 +21°C° 0 mm 1 m/S 738 mmHg 47%
    08:00 +19°C° 0.4 mm 2 m/S 738 mmHg 55%
    09:00 +19°C° 0.4 mm 2 m/S 738 mmHg 64%
    10:00 +18°C° 0.4 mm 3 m/S 738 mmHg 72%
    11:00 +20°C° 0.2 mm 2 m/S 737 mmHg 68%
    12:00 +23°C° 0.2 mm 2 m/S 737 mmHg 65%
    13:00 +24°C° 0.2 mm 2 m/S 736 mmHg 61%
    14:00 +24°C° 0.5 mm 2 m/S 736 mmHg 62%
    15:00 +24°C° 0.5 mm 2 m/S 735 mmHg 64%
    16:00 +24°C° 0.5 mm 2 m/S 735 mmHg 65%
    17:00 +23°C° 1.3 mm 2 m/S 734 mmHg 72%
    18:00 +21°C° 1.3 mm 2 m/S 734 mmHg 78%
    19:00 +19°C° 1.3 mm 3 m/S 734 mmHg 85%
    20:00 +19°C° 2.1 mm 3 m/S 734 mmHg 87%
    21:00 +20°C° 2.1 mm 3 m/S 734 mmHg 89%
    22:00 +20°C° 2.1 mm 3 m/S 734 mmHg 92%
    23:00 +20°C° 1.2 mm 3 m/S 733 mmHg 92%
    Mehr zeigen